This is the latest recevied weather packets stored in our database for station/object DB5WY-13. If no packets are shown the sender has not sent any weather packets the latest 10 day(s).
| Time | Temp. | Humidity | Pressure | Rain* | Wind** | Luminosity | Snow |
|---|---|---|---|---|---|---|---|
| 1777795206 | 21.11° C | 40% | 1016.5 hPa | 0 mm | - | - | - |
| 1777794607 | 21.67° C | 41% | 1016.3 hPa | 0 mm | - | - | - |
| 1777794006 | 21.67° C | 42% | 1016.2 hPa | 0 mm | - | - | - |
| 1777793407 | 21.11° C | 44% | 1016.3 hPa | 0 mm | - | - | - |
| 1777792807 | 18.89° C | 49% | 1016.3 hPa | 0 mm | - | - | - |
| 1777792207 | 18.33° C | 50% | 1016.4 hPa | 0 mm | - | - | - |
| 1777791607 | 17.78° C | 52% | 1016.3 hPa | 0 mm | - | - | - |
| 1777791007 | 17.78° C | 56% | 1016.3 hPa | 0 mm | - | - | - |
| 1777790407 | 16.67° C | 58% | 1016.3 hPa | 0 mm | - | - | - |
| 1777789807 | 16.67° C | 59% | 1016.2 hPa | 0 mm | - | - | - |
| 1777789207 | 15.56° C | 60% | 1016.1 hPa | 0 mm | - | - | - |
| 1777788607 | 15.56° C | 60% | 1016.1 hPa | 0 mm | - | - | - |
| 1777788007 | 14.44° C | 64% | 1016 hPa | 0 mm | - | - | - |
| 1777787407 | 13.89° C | 64% | 1016.1 hPa | 0 mm | - | - | - |
| 1777786807 | 12.78° C | 65% | 1015.9 hPa | 0 mm | - | - | - |
| 1777786207 | 12.78° C | 66% | 1016 hPa | 0 mm | - | - | - |
| 1777785607 | 12.22° C | 69% | 1016 hPa | 0 mm | - | - | - |
| 1777785007 | 11.11° C | 70% | 1016 hPa | 0 mm | - | - | - |
| 1777784407 | 10.56° C | 71% | 1015.9 hPa | 0 mm | - | - | - |
| 1777783807 | 10° C | 72% | 1015.9 hPa | 0 mm | - | - | - |
| 1777783207 | 10° C | 73% | 1016 hPa | 0 mm | - | - | - |
| 1777782607 | 9.44° C | 74% | 1016.1 hPa | 0 mm | - | - | - |
| 1777782007 | 8.89° C | 75% | 1016.3 hPa | 0 mm | - | - | - |
| 1777781407 | 8.33° C | 75% | 1016 hPa | 0 mm | - | - | - |
| 1777780807 | 7.78° C | 75% | 1016.1 hPa | 0 mm | - | - | - |
* Rain latest hour (hover to see other rain measurements)
** Current wind speed in m/s (hover to see current wind gust speed)